User: anonymous   Login
Location: Moscow
(38.8570°N, 84.2291°W)
Time: 10:58:16
(UTC+00:00)
Language:

JUGNU - Orbit

View from above orbital plane
View from above orbital plane
View from above satellite
View from above satellite

Ground track
Ground track

The orbit is defined by the following mean orbital elements,

1 37839U          26073.57141022 +.00000000 +00000-0 +12835-3 0 00005
2 37839  19.9595 163.2385 0018726 111.0167 277.7923 14.13743579    00
Epoch (UTC): 14 March 2026 13:42:49
Eccentricity: 0.0018726
inclination: 19.9595°
perigee height: 833 km
apogee height: 860 km
right ascension of ascending node: 163.2385°
argument of perigee: 111.0167°
revolutions per day: 14.13743579
mean anomaly at epoch: 277.7923°

The dashed part of the orbit path shows where the satellite is in the earth's shadow,  

DLR